Location: Wells
(51.2093°N, 2.6446°W)
Time: 14:01:04
(UTC+01:00)

CUBEBUG 2 - Pass Details

Date: 18 March 2026
Orbit: 548 x 627 km, 97.9° (Epoch: 14 April)

Event Time Altitude Azimuth Distance (km) Brightness Sun altitude
Rises 02:18:04 0° 17° (NNE) 2,903 ? -33.8°
Reaches altitude 10° 02:20:18 10° 23° (NNE) 2,001 ? -33.6°
Enters shadow 02:22:18 25° 35° (NE) 1,257 ? -33.4°
